Skip Page Navigation
NASA JPL Caltech
NASA Logo - Jet Propulsion Laboratory + View the NASA Portal
+ Center for Near-Earth Object Studies
JPL Home Earth Solar System Stars & Galaxies Technology
JPL Solar System Dynamics
BODIES ORBITS EPHEMERIDES TOOLS PHYSICAL DATA DISCOVERY FAQ SITE MAP
JPL Small-Body Database Browser
Search: [ help ]  
447618 (2006 UF162)
Classification: Main-belt Asteroid          SPK-ID: 2447618
Ephemeris | Orbit Diagram | Orbital Elements | Mission Design | Physical Parameters | Discovery Circumstances ]

[ show orbit diagram ]
Orbital Elements at Epoch 2459000.5 (2020-May-31.0) TDB
Reference: JPL 9 (heliocentric ecliptic J2000)
 Element Value Uncertainty (1-sigma)   Units 
e .03806526214050391 7.0153e-08  
a 2.707113134544851 3.5709e-08 au
q 2.6040661634344 1.8204e-07 au
i 3.229821459836203 7.25e-06 deg
node 108.7850267473911 0.00014697 deg
peri 151.5871673677636 0.00018866 deg
M 143.6018377940821 0.00011482 deg
tp 2458351.543580145078
(2018-Aug-21.04358015)
0.00052271 TDB
period 1626.889423816273
4.45
3.219e-05
8.813e-08
d
yr
n .2212811729733486 4.3784e-09 deg/d
Q 2.810160105655302 3.7069e-08 au
  Orbit Determination Parameters
   # obs. used (total)      81  
   data-arc span      5650 days (15.47 yr)  
   first obs. used      2004-03-19  
   last obs. used      2019-09-07  
   planetary ephem.      DE431  
   SB-pert. ephem.      SB431-N16  
   condition code      0  
   norm. resid. RMS      .67989  
   source      ORB  
   producer      Otto Matic  
   solution date      2020-Nov-12 07:49:08  

Additional Information
 Earth MOID = 1.58903 au 
 Jupiter MOID = 2.19725 au 
 T_jup = 3.361 
[ show covariance matrix ]

Ephemeris | Orbit Diagram | Orbital Elements | Mission Design | Physical Parameters | Discovery Circumstances ]

Physical Parameter Table
Parameter Symbol Value Units Sigma Reference Notes
absolute magnitude H 17.3   n/a MPO450459  

447618 (2006 UF162)          Discovered 2006-Oct-21 by Mt. Lemmon Survey at Mount Lemmon
Reference: Last Updated: 2015-10-28

Alternate Designations
 2006 UF162 = 2008 AR119 
Ephemeris | Orbit Diagram | Orbital Elements | Mission Design | Physical Parameters | Discovery Circumstances ]
ABOUT SSD CREDITS/AWARDS PRIVACY/COPYRIGHT GLOSSARY LINKS
FirstGov 2021-Jan-26 04:08 UT
(server date/time)  
NASA Home Page
Site Manager:   Ryan S. Park
Webmaster  Alan B. Chamberlin